Weather observations for the past three days for
San Antonio - Kelly Field
Imperial (Metric)
Date Time (cdt) Wind (mph) Vis. (mi.) Weather Sky Cond. Temperature (ºF) Relative Humidity Wind Chill (°F) Heat Index (°F) Pressure Precipitation (in)
Air Dwpt 6 hour altimeter (in) sea level (mb) 1 hr 3 hr 6 hr
Max. Min.
12 16:55 SE 13 10.00 Mostly Cloudy BKN140 84.4 69.4 61% 88 30.05 1016.9
12 15:55 E 7 10.00 A Few Clouds FEW130 FEW160 87.1 70 57% 92 30.04 1016.5 0.05
12 14:55 SE 8 10.00 Mostly Cloudy SCT130 BKN160 84.6 72 66% 90 30.04 1016.5
12 13:55 E 12 10.00 Mostly Cloudy FEW034 SCT070 SCT095 BKN120 88.7 72.5 59% 96 30.04 1016.5 0.05
12 12:55 Vrbl 7 3.00 Light Rain FEW028 BKN036 OVC065 85.6 72.5 89.4 75.7 65% 92 30.06 1017.1 0.04 0.04
12 11:55 S 8 10.00 Partly Cloudy FEW033 SCT140 SCT180 88.2 70.9 57% 94 30.07 1017.5
12 10:55 SE 10 6.00 Light Showers Rain FEW024 BKN035 BKN050 BKN060 79.3 73.6 83% 83 30.07 1017.6
12 09:55 S 6 10.00 Mostly Cloudy BKN015 82.4 73.2 74% 88 30.08 1017.8
12 08:55 E 5 10.00 A Few Clouds FEW016 FEW030 79.5 73.4 82% 83 30.06 1017.2
12 07:55 Calm 10.00 Mostly Cloudy BKN015 BKN030 77 73.4 89% 78 30.04 1016.5
12 06:55 Calm 10.00 Overcast SCT016 OVC180 75.9 72.3 77.9 73.9 89% 76 30.02 1015.8
12 05:55 Calm 10.00 Partly Cloudy FEW022 SCT180 74.3 70.9 89% 30.01 1015.4
12 04:55 Calm 9.00 Fair CLR 74.5 71.6 91% 30 1015.0
12 03:55 Calm 10.00 Fair CLR 74.5 71.2 90% 30 1015.1
12 02:55 Calm 10.00 A Few Clouds FEW014 75.9 72.3 89% 76 30.01 1015.5
12 01:55 Calm 10.00 Fair CLR 76.5 72.5 88% 77 30.02 1015.8
12 00:55 Calm 10.00 Fair CLR 77.9 72.7 91.2 77.9 84% 80 30.02 1015.8
11 23:55 Calm 10.00 Fair CLR 78.4 72.9 83% 81 30.02 1015.8
11 22:55 S 5 10.00 A Few Clouds FEW017 79.2 72.3 80% 82 30.01 1015.4
11 21:55 S 6 10.00 Fair CLR 80.8 71.2 73% 85 29.99 1014.8
11 20:55 S 8 10.00 Fair CLR 82.8 72 70% 88 29.99 1014.8
11 19:55 SE 15 9.00 Fair CLR 86.5 70.5 59% 92 29.98 1014.5
11 18:55 SE 14 10.00 Fair CLR 91 67.3 93.9 86 46% 95 29.96 1013.7
11 17:55 SE 15 10.00 A Few Clouds FEW210 92.1 69.4 48% 97 29.95 1013.4
11 16:55 E 6 10.00 Partly Cloudy SCT180 92.1 67.6 45% 96 29.96 1013.7
11 15:55 Vrbl 6 10.00 Mostly Cloudy FEW150 BKN180 89.1 68.5 51% 93 29.97 1014.1
11 14:55 S 5 10.00 Mostly Cloudy SCT140 BKN200 87.6 70.3 57% 93 29.99 1014.8
11 13:55 S 5 10.00 Mostly Cloudy BKN140 BKN250 87.4 70.7 58% 93 30 1015.1
11 12:55 S 7 10.00 Mostly Cloudy BKN150 BKN250 86.5 70 86.7 72.3 58% 91 30.03 1016.2
11 11:55 S 5 10.00 Mostly Cloudy BKN150 85.3 70.7 62% 90 30.03 1016.2
11 10:55 SE 3 10.00 Mostly Cloudy BKN150 85.5 69.4 59% 90 30.03 1016.2
11 09:55 NE 3 10.00 Mostly Cloudy BKN150 82.8 69.8 65% 87 30.03 1016.2
11 08:55 NE 3 10.00 Overcast FEW110 OVC170 81.5 69.4 67% 85 30.03 1016.2
11 07:55 Calm 10.00 Overcast FEW110 OVC150 75.7 69.8 82% 76 30.02 1015.9
11 06:55 Calm 10.00 Fair CLR 72.1 68.4 75.2 71.8 88% 29.99 1014.9
11 05:55 NW 3 10.00 Fair CLR 72.5 68.7 88% 29.98 1014.6
11 04:55 NW 3 10.00 Fair CLR 73.2 68.7 86% 29.98 1014.5
11 03:55 NW 3 10.00 Fair CLR 72.9 69.1 88% 29.99 1014.8
11 02:55 Calm 10.00 Fair CLR 72.3 69.3 90% 30 1015.0
11 01:55 Calm 10.00 Fair CLR 73.8 70 88% 30 1015.1
11 00:55 NW 5 10.00 Fair CLR 74.7 70.2 77.9 73.9 86% 30.01 1015.4
10 23:55 Calm 10.00 Fair CLR 74.1 70.9 90% 29.99 1014.8
10 22:55 Calm 10.00 Mostly Cloudy BKN210 75.2 71.4 88% 75 29.99 1014.8
10 21:55 Calm 10.00 Fair CLR 75.9 71.4 86% 76 29.98 1014.5
10 20:55 S 3 10.00 A Few Clouds FEW220 76.1 72.1 88% 76 29.98 1014.5
10 19:55 S 6 10.00 Mostly Cloudy FEW160 BKN190 77.2 70.9 81% 79 30 1015.2
10 18:55 S 15 10.00 Overcast OVC120 77.9 72.3 95.9 75.6 83% 80 29.99 1014.8 0.06
10 17:55 SE 17 10.00 Overcast FEW048 SCT090 BKN120 OVC140 78.4 69.4 74% 81 29.97 1014.2 0.05
10 16:55 S 13 10.00 Thunderstorm in Vicinity Light Rain FEW008 SCT060 BKN090 OVC110 81.9 72.3 73% 87 29.95 1013.4 0.01
10 15:55 NE 9 10.00 Mostly Cloudy SCT060 BKN090 BKN110 92.8 66.9 43% 96 29.94 1013.0
10 14:55 E 7 10.00 A Few Clouds FEW210 95.4 66.4 39% 99 29.95 1013.3
10 13:55 E 3 10.00 Mostly Cloudy FEW150 SCT180 SCT210 BKN230 92.8 67.6 44% 97 29.98 1014.3
10 12:55 E 6 10.00 Partly Cloudy FEW110 SCT170 SCT200 89.8 72 90 78.6 56% 97 30 1015.0
10 11:55 Calm 10.00 Overcast SCT075 OVC110 85.6 72.9 66% 92 30.02 1015.7
10 10:55 Calm 10.00 Mostly Cloudy BKN120 83.3 73.6 73% 90 30.02 1015.7
10 09:55 Calm 10.00 Overcast SCT015 OVC120 82.2 72.7 73% 88 30.02 1015.7
10 08:55 Calm 10.00 Overcast FEW014 OVC120 81.3 73 76% 86 30 1015.1
10 07:55 Calm 10.00 Overcast SCT013 SCT070 BKN100 OVC120 78.8 73.6 84% 82 29.99 1014.8
10 06:55 Calm 10.00 Overcast BKN070 OVC090 79.2 73 79.9 77.2 82% 83 29.98 1014.4
10 05:59 Calm 10.00 Overcast BKN012 OVC130 79.2 72.7 81% 83 29.97 1014.1
10 05:55 Calm 10.00 Overcast BKN012 BKN060 OVC130 78.6 72.3 81% 82 29.97 1014.1
10 04:55 Calm 10.00 Mostly Cloudy FEW013 BKN060 BKN140 78.1 72.1 82% 81 29.96 1013.8
10 03:55 Calm 10.00 Mostly Cloudy BKN140 77.5 72 83% 79 29.97 1014.1
10 02:55 W 3 10.00 A Few Clouds FEW085 FEW140 77.9 72 82% 80 29.98 1014.5
10 01:55 Calm 10.00 Overcast OVC120 79.5 72 78% 83 29.98 1014.3
10 00:55 SE 5 10.00 Fair CLR 79.2 72 87.1 79 79% 82 29.98 1014.3
09 23:55 SE 5 10.00 Partly Cloudy SCT220 80.8 71.6 74% 85 29.96 1013.6
09 22:55 SE 8 10.00 A Few Clouds FEW130 82.8 70.7 67% 87 29.97 1014.0
09 21:55 SE 9 10.00 Overcast SCT085 OVC130 84.6 66.6 55% 87 29.96 1013.6
09 20:55 E 5 10.00 Overcast OVC150 84.2 69.3 61% 88 29.93 1012.7
09 19:55 N 8 10.00 Mostly Cloudy BKN190 BKN210 85.5 67.8 56% 89 29.89 1011.3
09 18:55 N 7 10.00 Mostly Cloudy BKN210 86.7 65.1 98.1 81.7 49% 89 29.88 1011.0
09 17:55 NE 8 10.00 Overcast OVC140 84.9 66.9 55% 88 29.9 1011.7
Date Time (cdt) Wind (mph) Vis. (mi.) Weather Sky Cond. Air Dwpt Max. Min. Relative Humidity Wind Chill (°F) Heat Index (°F) altimeter (in) sea level (mb) 1 hr 3 hr 6 hr
6 hour
Temperature (ºF) Pressure Precipitation (in)